Location: Bernadets
(43.3537°N, 0.3167°E)
Time: 02:04:39
(UTC+00:00)

NOSS 8 (F) - Pass Details

Date: 24 October 2021
Orbit: 374 x 1788 km, 63.3° (Epoch: 27 November)

Event Time Altitude Azimuth Distance (km) Brightness Sun altitude
Rises 17:32:08 0° 211° (SSW) 2,745 9.1 -6.3°
Reaches altitude 10° 17:34:34 10° 210° (SSW) 1,689 7.9 -6.7°
Maximum altitude 17:38:10 74° 125° (SE) 443 4.2 -7.4°
Drops below altitude 10° 17:41:09 10° 40° (NE) 1,415 6.5 -7.9°
Enters shadow 17:41:58 - 39° (NE) 1,771 7.0 -8.0°
